| time (UTC) | temp F | wind direction | speed MPH | gust MPH | rain 1hr in | rain 24hr in | rain mn in | humidity % | barometer mb |
| 20260508043004 | 54 | 34 | 0.0 | 5.0 | 0.00 | 1.14 | 0.00 | 93 | 1011.3 |
| 20260508041607 | 54 | 37 | 0.0 | 2.0 | 0.01 | 1.14 | 0.00 | 93 | 1011.4 |
| 20260508040012 | 54 | 328 | 0.0 | 2.0 | 0.10 | 1.14 | 1.14 | 92 | 1011.2 |
| 20260508034512 | 54 | 55 | 0.0 | 3.0 | 0.10 | 1.14 | 1.14 | 92 | 1011.1 |
| 20260508033013 | 54 | 335 | 0.0 | 1.0 | 0.10 | 1.14 | 1.14 | 92 | 1011.3 |
| 20260508031512 | 55 | 240 | 0.0 | 5.0 | 0.09 | 1.13 | 1.13 | 91 | 1011.7 |
| 20260508030045 | 55 | 8 | 1.0 | 9.0 | 0.00 | 1.05 | 1.05 | 91 | 1010.7 |
| 20260508024540 | 55 | 42 | 2.0 | 5.0 | 0.00 | 1.05 | 1.05 | 91 | 1011.0 |
| 20260508023049 | 55 | 329 | 3.0 | 9.0 | 0.00 | 1.05 | 1.05 | 90 | 1010.6 |
| 20260508020019 | 56 | 32 | 3.0 | 8.0 | 0.00 | 1.05 | 1.05 | 90 | 1010.1 |
| 20260508014519 | 56 | 332 | 2.0 | 8.0 | 0.00 | 1.05 | 1.05 | 90 | 1009.6 |
| 20260508013029 | 56 | 310 | 2.0 | 8.0 | 0.00 | 1.05 | 1.05 | 90 | 1009.7 |
| 20260508011514 | 56 | 330 | 1.0 | 9.0 | 0.00 | 1.05 | 1.05 | 90 | 1009.4 |
| 20260508010014 | 57 | 323 | 3.0 | 8.0 | 0.00 | 1.05 | 1.05 | 89 | 1009.0 |
| 20260508004625 | 57 | 61 | 2.0 | 9.0 | 0.00 | 1.05 | 1.05 | 89 | 1008.5 |
| 20260508003129 | 58 | 39 | 3.0 | 8.0 | 0.00 | 1.05 | 1.05 | 89 | 1008.5 |
| 20260508001508 | 59 | 303 | 3.0 | 10.0 | 0.00 | 1.05 | 1.05 | 88 | 1008.4 |
| 20260508000025 | 61 | 316 | 5.0 | 14.0 | 0.00 | 1.05 | 1.05 | 87 | 1008.1 |
| 20260507234510 | 66 | 322 | 7.0 | 16.0 | 0.00 | 1.05 | 1.05 | 84 | 1007.7 |
| 20260507233015 | 70 | 141 | 0.0 | 1.0 | 0.00 | 1.05 | 1.05 | 90 | 1007.0 |
| 20260507231553 | 70 | 228 | 0.0 | 0.0 | 0.00 | 1.05 | 1.05 | 90 | 1006.7 |
| 20260507230048 | 70 | 227 | 0.0 | 2.0 | 0.00 | 1.05 | 1.05 | 89 | 1006.3 |
| 20260507224533 | 70 | 283 | 0.0 | 2.0 | 0.00 | 1.05 | 1.05 | 90 | 1006.5 |
| 20260507223029 | 69 | 147 | 0.0 | 2.0 | 0.00 | 1.05 | 1.05 | 89 | 1006.8 |
| 20260507221556 | 69 | 254 | 1.0 | 9.0 | 0.00 | 1.05 | 1.05 | 88 | 1007.0 |
| 20260507220057 | 70 | 262 | 0.0 | 7.0 | 0.00 | 1.05 | 1.05 | 87 | 1006.9 |
| 20260507214604 | 71 | 75 | 0.0 | 5.0 | 0.00 | 1.05 | 1.05 | 85 | 1006.7 |
| 20260507213053 | 71 | 237 | 1.0 | 7.0 | 0.00 | 1.05 | 1.05 | 84 | 1006.4 |
| 20260507211518 | 72 | 220 | 1.0 | 9.0 | 0.00 | 1.05 | 1.05 | 85 | 1006.1 |
| 20260507210032 | 71 | 113 | 2.0 | 8.0 | 0.00 | 1.05 | 1.05 | 86 | 1006.0 |
| 20260507204542 | 70 | 196 | 1.0 | 6.0 | 0.00 | 1.05 | 1.05 | 87 | 1006.2 |
| 20260507203052 | 70 | 117 | 1.0 | 5.0 | 0.00 | 1.05 | 1.05 | 87 | 1006.5 |
| 20260507201601 | 71 | 144 | 0.0 | 7.0 | 0.00 | 1.05 | 1.05 | 87 | 1006.8 |
| 20260507200057 | 72 | 19 | 2.0 | 10.0 | 0.00 | 1.05 | 1.05 | 86 | 1007.0 |
| 20260507194615 | 72 | 124 | 2.0 | 11.0 | 0.00 | 1.05 | 1.05 | 86 | 1007.0 |
| 20260507193045 | 71 | 142 | 1.0 | 6.0 | 0.01 | 1.05 | 1.05 | 88 | 1007.3 |
| 20260507191505 | 70 | 146 | 2.0 | 6.0 | 0.01 | 1.05 | 1.05 | 88 | 1007.5 |
| 20260507190006 | 70 | 226 | 1.0 | 5.0 | 0.02 | 1.05 | 1.05 | 90 | 1007.9 |
| 20260507184624 | 70 | 86 | 0.0 | 3.0 | 0.03 | 1.05 | 1.05 | 93 | 1008.2 |
| 20260507183022 | 69 | 249 | 0.0 | 4.0 | 0.05 | 1.04 | 1.04 | 93 | 1008.5 |
| 20260507181618 | 68 | 183 | 1.0 | 3.0 | 0.12 | 1.04 | 1.04 | 92 | 1008.6 |
| 20260507180051 | 68 | 123 | 0.0 | 7.0 | 0.17 | 1.03 | 1.03 | 92 | 1008.4 |
| 20260507174548 | 68 | 184 | 2.0 | 11.0 | 0.17 | 1.02 | 1.02 | 91 | 1009.0 |
| 20260507173023 | 69 | 131 | 5.0 | 11.0 | 0.14 | 0.99 | 0.99 | 92 | 1009.8 |
| 20260507171519 | 69 | 232 | 1.0 | 6.0 | 0.09 | 0.92 | 0.92 | 92 | 1009.9 |
| 20260507170002 | 69 | 208 | 0.0 | 6.0 | 0.08 | 0.86 | 0.86 | 92 | 1010.0 |
| 20260507164607 | 70 | 137 | 1.0 | 4.0 | 0.08 | 0.85 | 0.85 | 92 | 1010.0 |
| 20260507163036 | 70 | 167 | 0.0 | 3.0 | 0.08 | 0.85 | 0.85 | 92 | 1009.7 |
| 20260507161539 | 70 | 129 | 0.0 | 7.0 | 0.06 | 0.83 | 0.83 | 91 | 1010.0 |
| 20260507160022 | 71 | 244 | 1.0 | 5.0 | 0.01 | 0.78 | 0.78 | 91 | 1010.3 |
| 20260507154530 | 71 | 230 | 1.0 | 8.0 | 0.00 | 0.77 | 0.77 | 90 | 1010.0 |
| 20260507153056 | 72 | 187 | 0.0 | 4.0 | 0.00 | 0.77 | 0.77 | 90 | 1010.0 |
| 20260507151556 | 72 | 42 | 0.0 | 7.0 | 0.00 | 0.77 | 0.77 | 91 | 1009.9 |
| 20260507150044 | 72 | 221 | 0.0 | 5.0 | 0.00 | 0.77 | 0.77 | 92 | 1009.7 |
| 20260507144544 | 71 | 79 | 1.0 | 3.0 | 0.00 | 0.77 | 0.77 | 93 | 1009.6 |
| 20260507143024 | 71 | 210 | 1.0 | 6.0 | 0.01 | 0.77 | 0.77 | 93 | 1009.8 |
| 20260507141517 | 70 | 221 | 2.0 | 10.0 | 0.01 | 0.77 | 0.77 | 93 | 1009.7 |
| 20260507140045 | 70 | 202 | 1.0 | 8.0 | 0.01 | 0.77 | 0.77 | 94 | 1008.9 |
| 20260507134540 | 70 | 137 | 4.0 | 8.0 | 0.01 | 0.77 | 0.77 | 94 | 1009.7 |
| 20260507133019 | 69 | 205 | 2.0 | 8.0 | 0.00 | 0.76 | 0.76 | 94 | 1010.3 |
| 20260507131520 | 69 | 149 | 1.0 | 7.0 | 0.01 | 0.76 | 0.76 | 94 | 1010.6 |
| 20260507130017 | 69 | 131 | 1.0 | 5.0 | 0.03 | 0.76 | 0.76 | 94 | 1010.7 |
| 20260507124511 | 69 | 162 | 2.0 | 6.0 | 0.05 | 0.76 | 0.76 | 94 | 1010.8 |
| 20260507123028 | 69 | 296 | 2.0 | 11.0 | 0.07 | 0.76 | 0.76 | 94 | 1011.0 |
| 20260507121525 | 69 | 133 | 1.0 | 6.0 | 0.09 | 0.75 | 0.75 | 94 | 1011.7 |
| 20260507120024 | 69 | 168 | 0.0 | 3.0 | 0.35 | 0.73 | 0.73 | 94 | 1012.3 |
| 20260507114523 | 68 | 124 | 0.0 | 1.0 | 0.43 | 0.71 | 0.71 | 94 | 1012.4 |
| 20260507113046 | 68 | 226 | 0.0 | 1.0 | 0.42 | 0.69 | 0.69 | 94 | 1012.4 |
| 20260507113043 | 68 | 233 | 0.0 | 1.0 | 0.42 | 0.69 | 0.69 | 94 | 1012.4 |
| 20260507111526 | 68 | 2 | 1.0 | 7.0 | 0.39 | 0.65 | 0.65 | 94 | 1012.3 |
| 20260507110122 | 68 | 198 | 0.0 | 0.0 | 0.12 | 0.38 | 0.38 | 94 | 1012.5 |
| 20260507104505 | 68 | 202 | 0.0 | 1.0 | 0.02 | 0.28 | 0.28 | 94 | 1011.9 |
| 20260507103001 | 68 | 228 | 0.0 | 2.0 | 0.01 | 0.27 | 0.27 | 94 | 1011.6 |
| 20260507101507 | 68 | 159 | 0.0 | 2.0 | 0.00 | 0.26 | 0.26 | 94 | 1011.8 |
| 20260507100005 | 68 | 210 | 0.0 | 2.0 | 0.00 | 0.26 | 0.26 | 94 | 1011.6 |
| 20260507094527 | 68 | 118 | 0.0 | 3.0 | 0.00 | 0.26 | 0.26 | 93 | 1011.6 |
| 20260507093025 | 68 | 190 | 0.0 | 2.0 | 0.00 | 0.26 | 0.26 | 93 | 1011.5 |
| 20260507091531 | 68 | 139 | 0.0 | 4.0 | 0.00 | 0.26 | 0.26 | 93 | 1011.7 |
| 20260507090026 | 68 | 248 | 0.0 | 2.0 | 0.00 | 0.26 | 0.26 | 93 | 1011.7 |
| 20260507084510 | 68 | 167 | 0.0 | 3.0 | 0.01 | 0.26 | 0.26 | 93 | 1010.6 |
| 20260507083007 | 68 | 130 | 0.0 | 1.0 | 0.03 | 0.26 | 0.26 | 93 | 1010.9 |
| 20260507081515 | 68 | 140 | 0.0 | 1.0 | 0.04 | 0.26 | 0.26 | 93 | 1011.3 |
| 20260507080013 | 69 | 120 | 0.0 | 1.0 | 0.04 | 0.26 | 0.26 | 92 | 1011.4 |
| 20260507074515 | 69 | 120 | 0.0 | 1.0 | 0.09 | 0.25 | 0.25 | 92 | 1012.1 |
| 20260507073008 | 69 | 120 | 0.0 | 1.0 | 0.17 | 0.23 | 0.23 | 92 | 1012.1 |
| 20260507071534 | 69 | 132 | 0.0 | 2.0 | 0.22 | 0.22 | 0.22 | 91 | 1012.3 |
| 20260507070012 | 69 | 217 | 0.0 | 4.0 | 0.22 | 0.22 | 0.22 | 91 | 1012.6 |
| 20260507064504 | 70 | 213 | 1.0 | 4.0 | 0.16 | 0.16 | 0.16 | 90 | 1013.1 |
| 20260507063004 | 71 | 239 | 0.0 | 3.0 | 0.06 | 0.06 | 0.06 | 88 | 1013.1 |
| 20260507061525 | 71 | 263 | 0.0 | 4.0 | 0.00 | 0.00 | 0.00 | 87 | 1012.9 |
| 20260507060023 | 70 | 225 | 1.0 | 7.0 | 0.00 | 0.00 | 0.00 | 87 | 1012.4 |
| 20260507053127 | 70 | 145 | 0.0 | 7.0 | 0.00 | 0.00 | 0.00 | 87 | 1012.5 |
| 20260507051601 | 70 | 115 | 0.0 | 5.0 | 0.00 | 0.00 | 0.00 | 87 | 1012.6 |
| 20260507050134 | 70 | 77 | 0.0 | 5.0 | 0.00 | 0.00 | 0.00 | 86 | 1012.6 |
| 20260507044531 | 70 | 229 | 0.0 | 7.0 | 0.00 | 0.00 | 0.00 | 86 | 1012.7 |